TimeCDT,TemperatureF,Dew PointF,Humidity,Sea Level PressureIn,VisibilityMPH,Wind Direction,Wind SpeedMPH,Gust SpeedMPH,PrecipitationIn,Events,Conditions,WindDirDegrees,DateUTC
12:58 AM,31.3,25.0,77,30.36,10.0,SE,2.3,-,N/A,,Clear,140,2013-03-14 05:58:00
1:58 AM,33.1,24.8,72,30.34,10.0,SSE,8.1,-,N/A,,Clear,160,2013-03-14 06:58:00
2:58 AM,33.3,24.4,70,30.33,10.0,SSE,3.5,-,N/A,,Clear,160,2013-03-14 07:58:00
3:58 AM,33.8,24.3,68,30.30,10.0,South,5.8,-,N/A,,Clear,170,2013-03-14 08:58:00
4:58 AM,33.4,24.4,70,30.27,10.0,SSE,5.8,-,N/A,,Mostly Cloudy,160,2013-03-14 09:58:00
5:58 AM,33.6,25.3,72,30.24,10.0,South,11.5,-,N/A,,Scattered Clouds,170,2013-03-14 10:58:00
6:58 AM,34.3,25.2,69,30.26,10.0,South,8.1,-,N/A,,Mostly Cloudy,170,2013-03-14 11:58:00
7:58 AM,35.1,26.8,72,30.23,10.0,South,10.4,-,N/A,,Overcast,180,2013-03-14 12:58:00
8:58 AM,38.3,27.7,66,30.21,10.0,SSW,13.8,-,N/A,,Overcast,200,2013-03-14 13:58:00
9:58 AM,43.7,28.9,56,30.19,10.0,SSW,20.7,25.3,N/A,,Mostly Cloudy,210,2013-03-14 14:58:00
10:58 AM,50.9,31.8,48,30.14,10.0,SW,20.7,27.6,N/A,,Partly Cloudy,230,2013-03-14 15:58:00
11:58 AM,56.5,35.8,46,30.13,10.0,WSW,20.7,26.5,N/A,,Clear,250,2013-03-14 16:58:00
12:58 PM,60.1,37.2,43,30.12,10.0,WSW,17.3,26.5,N/A,,Clear,240,2013-03-14 17:58:00
1:58 PM,64.2,39.7,41,30.10,10.0,SW,18.4,24.2,N/A,,Clear,230,2013-03-14 18:58:00
2:10 PM,64.4,41.0,42,30.08,10.0,West,15.0,20.7,N/A,,Clear,280,2013-03-14 19:10:00
2:58 PM,65.8,40.1,39,30.07,10.0,West,16.1,23.0,N/A,,Clear,280,2013-03-14 19:58:00
3:44 PM,66.2,41.0,40,30.06,10.0,West,12.7,-,N/A,,Clear,280,2013-03-14 20:44:00
3:58 PM,67.1,41.0,39,30.07,10.0,West,10.4,-,N/A,,Clear,260,2013-03-14 20:58:00
4:58 PM,68.7,41.7,37,30.06,10.0,WNW,15.0,-,N/A,,Clear,290,2013-03-14 21:58:00
5:58 PM,69.4,41.4,36,30.06,10.0,West,10.4,-,N/A,,Clear,270,2013-03-14 22:58:00
6:58 PM,66.4,40.1,38,30.07,10.0,NW,5.8,-,N/A,,Clear,310,2013-03-14 23:58:00
7:58 PM,60.3,39.7,47,30.09,10.0,North,3.5,-,N/A,,Clear,350,2013-03-15 00:58:00
8:58 PM,51.6,39.6,63,30.10,10.0,SW,5.8,-,N/A,,Clear,230,2013-03-15 01:58:00
9:58 PM,50.5,39.7,66,30.10,10.0,West,3.5,-,N/A,,Clear,270,2013-03-15 02:58:00
10:58 PM,50.5,40.6,69,30.09,10.0,West,2.3,-,N/A,,Clear,280,2013-03-15 03:58:00
11:58 PM,48.9,39.7,71,30.08,10.0,Calm,Calm,-,N/A,,Clear,350,2013-03-15 04:58:00